Lid_Strength_Index
3 3 3 3 3 3 3 3 3 2 2 2 1 1 1 1 1 4 9 5 4 -0 -2 5 3 5 6 8 9 11 15 17 15 13 12 10 11 9 4 6 5 5 5 4 3
4 4 4 3 3 3 3 3 3 2 2 1 1 1 1 1 5 7 3 -1 -1 -2 5 6 8 6 9 9 9 12 15 15 13 11 11 11 9 10 6 6 6 6 4 3 3
4 4 4 4 4 3 3 3 2 2 2 2 1 1 1 1 9 9 -1 -1 -2 -2 5 5 7 8 10 11 10 11 13 12 11 9 9 10 9 8 8 8 6 6 6 4 4
4 4 4 4 4 4 3 3 2 2 2 2 1 1 1 4 14 9 -2 -2 -2 0 3 6 8 11 12 12 10 12 11 11 11 10 10 11 9 10 9 6 4 4 4 4 4
4 4 4 4 4 4 3 3 2 2 2 2 2 1 3 9 9 6 -2 -1 0 2 5 7 9 10 11 11 11 12 10 10 10 10 12 10 10 9 9 8 4 4 4 5 4
4 4 4 4 4 4 3 3 2 2 2 2 2 1 6 12 7 4 5 1 1 5 6 7 8 8 10 11 11 10 10 10 10 10 11 11 10 10 9 7 6 5 5 5 4
4 4 4 4 4 3 3 2 2 2 2 2 1 3 6 9 6 5 3 4 3 4 6 6 7 9 10 11 10 10 11 10 10 10 11 10 11 12 9 5 6 5 5 5 4
5 5 4 4 4 3 3 2 2 2 2 1 1 4 10 5 4 5 6 6 5 5 5 6 7 9 11 10 10 12 13 14 12 11 10 9 13 7 8 6 7 6 5 5 4
5 5 4 4 4 3 3 3 1 1 0 1 4 7 9 3 4 3 5 6 6 5 6 4 8 10 11 13 14 14 16 15 12 10 10 10 13 9 7 7 7 6 6 5 8
5 5 5 4 4 3 3 3 -1 0 1 1 3 8 8 6 3 3 4 4 6 7 7 9 11 13 14 15 17 15 16 15 14 11 11 11 12 10 9 6 7 6 7 8 7
5 5 5 4 4 3 5 7 9 9 7 8 7 7 6 4 2 4 4 5 5 8 12 11 13 15 13 13 12 13 14 14 13 10 11 12 12 10 9 7 7 6 7 9 7
5 5 5 4 4 4 6 9 9 8 11 7 6 6 4 4 6 5 3 8 9 11 11 13 14 12 11 11 12 13 14 14 12 11 11 12 12 10 10 9 6 6 6 7 9
5 5 5 4 4 7 8 8 8 8 11 8 6 7 6 5 7 6 5 8 9 11 12 13 12 9 10 11 12 13 14 14 13 11 11 12 14 12 9 9 8 7 6 6 8
5 5 5 4 7 8 8 6 7 7 12 10 7 6 6 6 8 5 5 6 10 10 11 12 10 11 11 12 12 14 11 11 12 13 15 12 17 14 12 10 9 7 8 7 8
5 5 5 4 9 9 7 7 7 6 18 8 8 5 6 8 7 6 5 8 10 10 10 11 10 10 11 11 10 12 9 11 11 13 15 15 17 15 12 12 10 8 7 7 9
5 5 5 6 9 7 7 7 7 12 16 10 8 9 10 9 8 7 7 7 7 10 11 10 9 9 9 8 9 8 10 12 14 15 18 13 15 17 14 12 11 9 7 7 7
5 5 6 5 9 7 8 8 13 16 10 11 12 10 11 11 10 9 10 11 13 14 14 11 11 9 8 10 9 11 13 17 18 18 17 15 16 15 11 11 10 10 9 7 6
6 6 6 4 6 8 9 11 16 13 13 10 10 10 13 12 12 11 12 13 12 12 14 15 15 10 8 10 12 12 13 16 19 20 17 14 16 13 10 9 9 9 9 9 8
6 8 7 7 7 8 10 16 17 13 11 12 11 12 14 13 12 11 14 14 12 11 14 15 14 9 8 8 10 12 15 12 15 16 18 16 13 11 10 9 8 9 8 9 9
10 9 9 6 8 8 12 14 14 11 10 11 14 12 15 13 14 13 14 13 13 11 11 14 16 10 9 8 9 11 10 15 16 19 20 17 15 15 11 10 9 9 9 9 9
10 10 8 6 8 11 16 15 12 10 9 11 13 14 14 14 14 13 13 12 11 12 11 14 15 13 10 12 14 12 16 15 14 16 19 19 17 11 11 10 10 8 8 10 9
12 13 7 8 13 14 15 12 9 10 9 10 11 12 13 14 14 14 14 12 10 9 12 12 15 18 14 11 10 12 15 15 18 18 16 17 17 9 10 10 9 8 7 7 7
13 12 8 9 16 16 13 11 10 10 11 11 12 11 12 15 16 13 12 10 10 10 13 13 17 19 17 13 13 15 15 14 16 15 18 19 16 8 8 9 9 9 7 7 7
13 15 12 12 13 14 14 13 12 9 10 10 11 12 14 15 15 15 14 11 10 10 9 11 15 16 19 16 14 16 16 15 15 18 18 16 15 12 9 9 9 9 9 7 7
13 15 13 16 14 14 14 12 12 12 10 10 12 12 14 17 16 16 13 12 10 9 11 13 16 14 15 14 14 15 16 16 17 16 18 16 16 13 11 10 10 9 8 8 8
14 14 13 13 12 13 13 14 12 11 11 12 13 12 13 16 14 14 13 13 13 11 13 12 17 14 15 13 14 16 15 15 16 16 15 14 14 11 10 9 10 9 8 8 8
11 11 12 13 14 14 14 12 11 10 9 9 10 12 13 11 9 9 10 10 10 12 13 14 15 17 18 13 14 18 14 15 15 13 13 17 13 12 12 12 11 9 9 8 6